OBJECT C, 42827

Orbit data source: Space-Track

You're viewing an Uncataloged Satellite

Recently launched and/or uncataloged satellites may have evolving metadata. Metadata may include but not limited to: Owner, Maufacturer, Bus, Motor, and Mission.

OBJECT C, 42827 is a satellite in SSO that was launched on Fri, 14 Jul 2017 UTC via a SOYUZ-2-1A launch vehicle from the Tyuratam Missile And Space Complex (TTMTR). Unknown objects in Earth's orbit typically refer to objects detected orbiting the Earth but have not yet been identified or cataloged. These objects could be anything from previously untracked satellites, spent rocket stages, debris from satellite collisions, or even natural meteoroids temporarily captured by Earth's gravity.

Loading next visibility...
Identifier
42827, 2017-042C
Orbit
SSO
Country
Flag of TBDTBD
Related business
None
Manufacturer
Unknown
Mission
Non-operational Amateur Technology
Bus & Motor
Unknown
Mass
Unknown
Launch date (UTC)
2017-07-14 (9 years ago)
Launch vehicle
SOYUZ-2-1A
Launch site
Tyuratam Missile And Space Complex (TTMTR)
Object type
Unknown
Shape & HBR
Box, 0.1 m
Radar Cross Section
0.035 m², Medium (>0.1 m² and < 1m²)

Expand to show TLE details & history
Last TLE update: 3 days ago

TLE from 3 days ago
0 OBJECT C
1 42827U 17042C   26171.20721384  .00011086  00000-0  43327-3 0  9999
2 42827  97.4118 346.6626 0009816  69.8191 290.4103 15.25990460488297
Epoch: 2026-06-20T04:58Z
TLE epoch observation values (Epoch: 2026-06-20T04:58:23.275Z)
Latitude
0.00003°
Longitude
3.64047°
Altitude
488.566 km
Speed
7.622 km/s
True Right ascension
23h 06m 39s
True Declination
0° 00' 00"
Sunlit
Object was in daylight at epoch
Visualization orbit readout
Latitude
Unknown
Longitude
Unknown
Altitude
Unknown
Speed
Unknown
Apparent Right ascension
Unknown
Apparent Declination
Unknown
Sunlit
N/A
Visualization observer readout
Local Sidereal Time
05:34:41
Azimuth
Unknown
Elevation
Unknown
Doppler factor
Unknown
Orbital elements
Apogee altitude
491.508 km
Perigee altitude
478.034 km
Semi-major axis
6,862.908 km
Eccentricity
0.00098
Inclination
97.4118°
RAAN
346.6626°
Arg. of periapsis
69.8191°
True anomaly
290.30483°
Mean anomaly
290.4103°
Eccentric anomaly
290.35757°
Mean motion
3.81752 °/min
Orbital period
94.3 mins
BSTAR
0.00043327
Loading maneuver chart data...
Computing Atmospheric mass density...
Loading historical data...
Loading historical data...
Loading historical data...
Loading historical data...
Loading historical data...
Loading historical data...
Loading historical data...

Documentation

Showing up to 5 results
|